Date String (YYYY-MM-DD hh:mm:ss) UTC,Instrument flags,Ambient pressure (hPa),Sample flow (lpm),Bypass flow (lpm),Sample temperature (°C),Ambient temperature (°C),ASC tube jacket temperature (°C),LED temperature (°C),Box temperature (°C),Sample RH (%),Span deviation,Mass concentration (μg/m³),Mass concentration (μg/m³),Mass concentration (μg/m³)
DateTimeUTC,F1_M11,P_M11,Q1_M11,Q2_M11,T1_M11,T2_M11,T3_M11,T4_M11,T5_M11,U1_M11,ZSPAN_M11,X0_M11,X2_M11,X1_M11
2023-04-05 19:00:00,,0828.4,5.01,0.00,23.0,21.6,00.0,31.3,24.6,11.4,0002.7,0012.62,0006.63,0006.31
2023-04-05 19:01:00,,0828.4,5.01,0.00,23.0,21.6,00.0,31.3,24.6,11.7,0002.6,0012.90,0006.65,0006.32
2023-04-05 19:02:00,,0828.4,5.01,0.00,23.0,21.6,00.0,31.3,24.7,11.3,0002.3,0012.92,0006.65,0006.32
2023-04-05 19:03:00,,0828.4,5.01,0.00,23.1,21.6,00.0,31.3,24.6,11.2,0001.5,0012.57,0006.64,0006.32
2023-04-05 19:04:00,,0828.4,5.00,0.00,23.1,21.6,00.0,31.3,24.7,10.9,0001.3,0011.90,0006.65,0006.31
2023-04-05 19:05:00,,0828.4,5.00,0.00,23.1,21.6,00.0,31.3,24.7,11.1,0000.8,0011.75,0006.63,0006.31
2023-04-05 19:06:00,,0828.4,5.00,0.00,23.1,21.6,00.0,31.3,24.7,10.9,0000.7,0011.39,0006.63,0006.31
2023-04-05 19:07:00,,0828.4,4.99,0.00,23.1,21.6,00.0,31.3,24.6,11.2,0000.8,0011.21,0006.63,0006.31
2023-04-05 19:08:00,,0828.4,5.00,0.00,23.1,21.6,00.0,31.3,24.6,11.1,0000.8,0010.47,0006.64,0006.31
2023-04-05 19:09:00,,0828.4,5.01,0.00,23.1,21.6,00.0,31.3,24.6,10.9,0001.3,0010.06,0006.64,0006.30
2023-04-05 19:10:00,,0828.4,5.01,0.00,23.1,21.5,00.0,31.3,24.6,10.7,0001.6,0010.03,0006.64,0006.29
2023-04-05 19:11:00,,0828.4,5.00,0.00,23.1,21.6,00.0,31.3,24.6,10.9,0001.1,0010.40,0006.66,0006.29
2023-04-05 19:12:00,,0828.4,5.00,0.00,23.1,21.6,00.0,31.3,24.6,10.7,0001.0,0009.96,0006.66,0006.28
2023-04-05 19:13:00,,0828.4,4.99,0.00,23.1,21.6,00.0,31.3,24.6,10.7,0001.3,0010.53,0006.66,0006.27
2023-04-05 19:14:00,,0828.4,5.00,0.00,23.1,21.6,00.0,31.3,24.6,10.7,0001.1,0010.71,0006.69,0006.28
2023-04-05 19:15:00,,0828.4,5.02,0.00,23.1,21.6,00.0,31.4,24.6,11.0,0000.5,0010.93,0006.69,0006.27
2023-04-05 19:16:00,,0828.4,4.99,0.00,23.1,21.6,00.0,31.4,24.6,11.3,0000.3,0010.98,0006.67,0006.25
2023-04-05 19:17:00,,0828.3,4.99,0.00,23.1,21.6,00.0,31.4,24.6,11.3,-000.0,0010.96,0006.67,0006.24
2023-04-05 19:18:00,,0828.3,5.00,0.00,23.1,21.6,00.0,31.4,24.6,11.0,0000.3,0011.08,0006.69,0006.24
2023-04-05 19:19:00,,0828.3,5.01,0.00,23.1,21.6,00.0,31.4,24.6,11.0,0000.3,0012.23,0006.69,0006.25
2023-04-05 19:20:00,,0828.3,5.00,0.00,23.1,21.6,00.0,31.4,24.7,11.1,0000.3,0012.67,0006.67,0006.25
2023-04-05 19:21:00,,0828.4,5.00,0.00,23.1,21.6,00.0,31.4,24.7,11.4,0000.1,0012.75,0006.70,0006.26
2023-04-05 19:22:00,,0828.3,4.99,0.00,23.1,21.6,00.0,31.4,24.7,11.8,0000.6,0012.53,0006.70,0006.25
2023-04-05 19:23:00,,0828.4,5.00,0.00,23.1,21.6,00.0,31.4,24.7,11.3,0000.6,0012.25,0006.66,0006.23
2023-04-05 19:24:00,,0828.4,5.01,0.00,23.1,21.6,00.0,31.4,24.7,11.2,0000.7,0011.57,0006.63,0006.24
2023-04-05 19:25:00,,0828.4,5.00,0.00,23.1,21.6,00.0,31.4,24.7,11.6,0001.4,0011.44,0006.62,0006.23
2023-04-05 19:26:00,,0828.4,5.00,0.00,23.1,21.6,00.0,31.4,24.7,10.9,0001.7,0011.17,0006.58,0006.22
2023-04-05 19:27:00,,0828.4,4.99,0.00,23.1,21.6,00.0,31.4,24.7,11.0,0002.0,0011.06,0006.56,0006.21
2023-04-05 19:28:00,,0828.4,5.00,0.00,23.1,21.6,00.0,31.4,24.7,10.8,0002.7,0011.34,0006.57,0006.22
2023-04-05 19:29:00,,0828.4,5.01,0.00,23.1,21.6,00.0,31.4,24.7,10.3,0002.5,0011.34,0006.55,0006.22
2023-04-05 19:30:00,,0828.4,5.00,0.00,23.1,21.6,00.0,31.4,24.7,10.2,0002.0,0010.13,0006.51,0006.20
2023-04-05 19:31:00,,0828.4,5.02,0.00,23.1,21.6,00.0,31.4,24.7,10.6,0001.7,0009.69,0006.51,0006.18
2023-04-05 19:32:00,,0828.5,5.00,0.00,23.1,21.6,00.0,31.4,24.7,10.8,0001.6,0009.60,0006.47,0006.16
2023-04-05 19:33:00,,0828.5,4.99,0.00,23.1,21.6,00.0,31.4,24.7,10.9,0001.3,0009.47,0006.45,0006.16
2023-04-05 19:34:00,,0828.5,5.00,0.00,23.1,21.6,00.0,31.4,24.7,10.9,0001.6,0009.48,0006.46,0006.16
2023-04-05 19:35:00,,0828.5,5.01,0.00,23.1,21.6,00.0,31.4,24.7,11.5,0001.8,0009.72,0006.48,0006.16
2023-04-05 19:36:00,,0828.4,5.01,0.00,23.1,21.6,00.0,31.4,24.7,11.3,0001.9,0010.32,0006.49,0006.16
2023-04-05 19:37:00,,0828.4,5.00,0.00,23.1,21.6,00.0,31.4,24.7,11.3,0002.0,0010.32,0006.51,0006.17
2023-04-05 19:38:00,,0828.4,4.99,0.00,23.1,21.6,00.0,31.4,24.7,11.6,0002.2,0011.10,0006.54,0006.20
2023-04-05 19:39:00,,0828.4,4.99,0.00,23.1,21.6,00.0,31.4,24.8,12.2,0001.8,0010.86,0006.54,0006.20
2023-04-05 19:40:00,,0828.4,4.99,0.00,23.2,21.6,00.0,31.4,24.8,11.5,0001.6,0011.29,0006.56,0006.20
2023-04-05 19:41:00,,0828.5,4.99,0.00,23.1,21.7,00.0,31.4,24.8,11.9,0002.2,0011.72,0006.58,0006.20
2023-04-05 19:42:00,,0828.5,5.00,0.00,23.1,21.7,00.0,31.4,24.8,11.8,0002.5,0011.80,0006.61,0006.23
2023-04-05 19:43:00,,0828.6,5.00,0.00,23.2,21.7,00.0,31.4,24.7,11.8,0002.7,0012.41,0006.63,0006.25
2023-04-05 19:44:00,,0828.6,5.01,0.00,23.2,21.7,00.0,31.4,24.7,12.4,0002.9,0012.34,0006.60,0006.25
2023-04-05 19:45:00,,0828.5,5.00,0.00,23.2,21.7,00.0,31.4,24.7,11.7,0002.6,0012.36,0006.62,0006.25
2023-04-05 19:46:00,,0828.5,5.00,0.00,23.2,21.7,00.0,31.4,24.7,11.7,0002.0,0012.53,0006.63,0006.27
2023-04-05 19:47:00,,0828.6,5.00,0.00,23.2,21.7,00.0,31.4,24.7,11.7,0001.4,0012.32,0006.62,0006.26
2023-04-05 19:48:00,,0828.6,5.00,0.00,23.2,21.7,00.0,31.4,24.7,11.9,0001.7,0012.41,0006.63,0006.26
2023-04-05 19:49:00,,0828.6,5.00,0.00,23.2,21.7,00.0,31.4,24.7,11.7,0001.4,0012.04,0006.63,0006.25
2023-04-05 19:50:00,,0828.5,5.00,0.00,23.2,21.7,00.0,31.4,24.7,11.6,0001.1,0011.58,0006.64,0006.24
2023-04-05 19:51:00,,0828.5,4.99,0.00,23.2,21.7,00.0,31.4,24.7,11.7,0001.2,0011.52,0006.62,0006.23
2023-04-05 19:52:00,,0828.5,4.99,0.00,23.2,21.7,00.0,31.4,24.7,11.6,0000.7,0011.52,0006.62,0006.25
2023-04-05 19:53:00,,0828.5,5.00,0.00,23.2,21.7,00.0,31.4,24.7,12.0,0000.4,0012.74,0006.60,0006.24
2023-04-05 19:54:00,,0828.5,5.00,0.00,23.2,21.7,00.0,31.5,24.7,11.9,0000.6,0012.30,0006.58,0006.23
2023-04-05 19:55:00,,0828.5,4.99,0.00,23.2,21.7,00.0,31.5,24.7,12.3,0000.5,0012.38,0006.58,0006.22
2023-04-05 19:56:00,,0828.4,4.99,0.00,23.2,21.7,00.0,31.4,24.7,12.2,0000.8,0012.86,0006.55,0006.20
2023-04-05 19:57:00,,0828.5,5.00,0.00,23.2,21.7,00.0,31.5,24.7,12.0,0001.0,0012.75,0006.51,0006.17
2023-04-05 19:58:00,,0828.5,5.00,0.00,23.2,21.7,00.0,31.5,24.7,12.5,0001.1,0012.36,0006.48,0006.14
2023-04-05 19:59:00,,0828.5,5.00,0.00,23.2,21.7,00.0,31.5,24.7,12.4,0000.8,0011.90,0006.43,0006.12
